Time,TemperatureF,DewpointF,PressureIn,WindDirection,WindDirectionDegrees,WindSpeedMPH,WindSpeedGustMPH,Humidity,HourlyPrecipIn,Conditions,Clouds,dailyrainin,SoftwareType,DateUTC
2013-12-10 00:02:00,3.7,-2.5,28.87,WNW,293,0.0,0.0,75,0.00,,,0.00,WUHU216HW,2013-12-10 06:02:00,
2013-12-10 00:07:00,3.7,-2.5,28.87,WNW,293,0.0,0.0,75,0.00,,,0.00,WUHU216HW,2013-12-10 06:07:00,
2013-12-10 00:13:00,3.9,-2.3,28.87,WNW,293,0.0,0.0,75,0.00,,,0.00,WUHU216HW,2013-12-10 06:13:00,
2013-12-10 00:18:00,4.1,-2.1,28.87,WNW,293,0.0,0.0,75,0.00,,,0.00,WUHU216HW,2013-12-10 06:18:00,
2013-12-10 00:23:00,4.1,-2.1,28.86,WNW,293,0.0,0.0,75,0.00,,,0.00,WUHU216HW,2013-12-10 06:23:00,
2013-12-10 00:28:00,4.4,-1.8,28.85,WNW,293,0.0,0.0,75,0.00,,,0.00,WUHU216HW,2013-12-10 06:28:00,
2013-12-10 00:33:00,4.6,-1.6,28.85,WNW,293,0.0,0.0,75,0.00,,,0.00,WUHU216HW,2013-12-10 06:33:00,
2013-12-10 00:38:00,4.8,-1.1,28.85,WNW,293,0.0,0.0,76,0.00,,,0.00,WUHU216HW,2013-12-10 06:38:00,
2013-12-10 00:43:00,5.3,-0.6,28.84,WNW,293,0.0,0.0,76,0.00,,,0.00,WUHU216HW,2013-12-10 06:43:00,
2013-12-10 00:48:00,5.7,-0.2,28.84,WNW,293,0.0,0.0,76,0.00,,,0.00,WUHU216HW,2013-12-10 06:48:00,
2013-12-10 00:53:00,6.4,0.0,28.84,WNW,293,0.0,0.0,76,0.00,,,0.00,WUHU216HW,2013-12-10 06:53:00,
2013-12-10 00:58:00,6.6,0.6,28.84,WNW,293,0.0,0.0,76,0.00,,,0.00,WUHU216HW,2013-12-10 06:58:00,
2013-12-10 01:03:00,6.6,0.6,28.84,WNW,293,0.0,0.0,76,0.00,,,0.00,WUHU216HW,2013-12-10 07:03:00,
2013-12-10 01:08:00,6.9,0.9,28.83,WNW,293,0.0,0.0,76,0.00,,,0.00,WUHU216HW,2013-12-10 07:08:00,
2013-12-10 01:14:00,6.9,0.9,28.83,WNW,293,0.0,0.0,76,0.00,,,0.00,WUHU216HW,2013-12-10 07:14:00,
2013-12-10 01:19:00,7.1,1.4,28.83,WNW,293,0.0,0.0,77,0.00,,,0.00,WUHU216HW,2013-12-10 07:19:00,
2013-12-10 01:24:00,7.5,1.7,28.83,WNW,293,0.0,0.0,77,0.00,,,0.00,WUHU216HW,2013-12-10 07:24:00,
2013-12-10 01:29:00,7.5,1.7,28.82,WNW,293,0.0,0.0,77,0.00,,,0.00,WUHU216HW,2013-12-10 07:29:00,
2013-12-10 01:34:00,7.8,2.1,28.82,WNW,293,0.0,0.0,77,0.00,,,0.00,WUHU216HW,2013-12-10 07:34:00,
2013-12-10 01:39:00,8.0,2.3,28.81,WNW,293,0.0,0.0,77,0.00,,,0.00,WUHU216HW,2013-12-10 07:39:00,
2013-12-10 01:44:00,8.2,2.5,28.81,WNW,293,0.0,0.0,77,0.00,,,0.00,WUHU216HW,2013-12-10 07:44:00,
2013-12-10 01:49:00,8.4,2.6,28.80,WNW,293,0.0,0.0,77,0.00,,,0.00,WUHU216HW,2013-12-10 07:49:00,
2013-12-10 01:54:00,8.4,2.6,28.80,WNW,293,0.0,0.0,77,0.00,,,0.00,WUHU216HW,2013-12-10 07:54:00,
2013-12-10 01:59:00,8.7,3.0,28.80,WNW,293,0.0,0.0,77,0.00,,,0.00,WUHU216HW,2013-12-10 07:59:00,
2013-12-10 02:04:00,9.1,3.3,28.80,WNW,293,0.0,0.0,77,0.00,,,0.00,WUHU216HW,2013-12-10 08:04:00,
2013-12-10 02:10:00,9.3,3.8,28.80,WNW,293,0.0,0.0,78,0.00,,,0.00,WUHU216HW,2013-12-10 08:10:00,
2013-12-10 02:15:00,9.6,4.1,28.80,WNW,293,0.0,0.0,78,0.00,,,0.00,WUHU216HW,2013-12-10 08:15:00,
2013-12-10 02:20:00,9.6,4.1,28.80,WNW,293,0.0,0.0,78,0.00,,,0.00,WUHU216HW,2013-12-10 08:20:00,
2013-12-10 02:25:00,10.0,4.4,28.80,WNW,293,0.0,0.0,78,0.00,,,0.00,WUHU216HW,2013-12-10 08:25:00,
2013-12-10 02:30:00,10.2,4.6,28.79,WNW,293,0.0,0.0,78,0.00,,,0.00,WUHU216HW,2013-12-10 08:30:00,
2013-12-10 02:35:00,10.5,4.9,28.79,WNW,293,0.0,0.0,78,0.00,,,0.00,WUHU216HW,2013-12-10 08:35:00,
2013-12-10 02:40:00,10.5,4.9,28.79,WNW,293,0.0,0.0,78,0.00,,,0.00,WUHU216HW,2013-12-10 08:40:00,
2013-12-10 02:45:00,10.7,5.1,28.80,WNW,293,0.0,0.0,78,0.00,,,0.00,WUHU216HW,2013-12-10 08:45:00,
2013-12-10 02:50:00,10.5,4.9,28.80,WNW,293,0.0,0.0,78,0.00,,,0.00,WUHU216HW,2013-12-10 08:50:00,
2013-12-10 02:55:00,10.5,4.6,28.79,WNW,293,0.0,0.0,78,0.00,,,0.00,WUHU216HW,2013-12-10 08:55:00,
2013-12-10 03:00:00,10.5,4.6,28.79,WNW,293,0.0,0.0,77,0.00,,,0.00,WUHU216HW,2013-12-10 09:00:00,
2013-12-10 03:04:00,10.5,4.6,28.79,WNW,293,0.0,0.0,77,0.00,,,0.00,WUHU216HW,2013-12-10 09:04:00,
2013-12-10 03:09:00,10.7,5.1,28.79,WNW,293,0.0,0.0,78,0.00,,,0.00,WUHU216HW,2013-12-10 09:09:00,
2013-12-10 03:14:00,10.9,5.3,28.79,WNW,293,0.0,0.0,78,0.00,,,0.00,WUHU216HW,2013-12-10 09:14:00,
2013-12-10 03:19:00,11.3,5.6,28.79,WNW,293,0.0,0.0,78,0.00,,,0.00,WUHU216HW,2013-12-10 09:19:00,
2013-12-10 03:24:00,11.6,6.0,28.79,WNW,293,2.2,2.2,78,0.00,,,0.00,WUHU216HW,2013-12-10 09:24:00,
2013-12-10 03:29:00,12.0,6.4,28.78,WNW,293,0.0,2.2,78,0.00,,,0.00,WUHU216HW,2013-12-10 09:29:00,
2013-12-10 03:34:00,12.0,6.4,28.78,WNW,293,0.0,2.2,78,0.00,,,0.00,WUHU216HW,2013-12-10 09:34:00,
2013-12-10 03:39:00,12.0,6.4,28.78,WNW,293,0.0,0.0,78,0.00,,,0.00,WUHU216HW,2013-12-10 09:39:00,
2013-12-10 03:44:00,12.0,6.4,28.77,WNW,293,0.0,0.0,78,0.00,,,0.00,WUHU216HW,2013-12-10 09:44:00,
2013-12-10 03:50:00,12.0,6.4,28.78,WNW,293,2.9,2.9,78,0.00,,,0.00,WUHU216HW,2013-12-10 09:50:00,
2013-12-10 03:55:00,12.0,6.4,28.77,WNW,293,0.0,6.4,78,0.00,,,0.00,WUHU216HW,2013-12-10 09:55:00,
2013-12-10 04:00:00,12.2,6.8,28.78,WNW,293,0.0,6.4,79,0.00,,,0.00,WUHU216HW,2013-12-10 10:00:00,
2013-12-10 04:05:00,12.2,6.8,28.77,WNW,293,0.0,1.3,79,0.00,,,0.00,WUHU216HW,2013-12-10 10:05:00,
2013-12-10 04:10:00,12.2,6.8,28.77,WNW,293,2.4,3.3,79,0.00,,,0.00,WUHU216HW,2013-12-10 10:10:00,
2013-12-10 04:15:00,12.3,7.3,28.77,WNW,293,2.4,3.3,80,0.00,,,0.00,WUHU216HW,2013-12-10 10:15:00,
2013-12-10 04:20:00,12.5,7.5,28.77,WNW,293,2.2,2.4,80,0.00,,,0.00,WUHU216HW,2013-12-10 10:20:00,
2013-12-10 04:25:00,13.1,7.7,28.77,WNW,293,6.4,6.4,80,0.00,,,0.00,WUHU216HW,2013-12-10 10:25:00,
2013-12-10 04:30:00,13.2,8.5,28.77,WNW,293,3.3,6.4,81,0.00,,,0.00,WUHU216HW,2013-12-10 10:30:00,
2013-12-10 04:35:00,13.8,9.0,28.77,WNW,293,2.2,6.4,81,0.00,,,0.00,WUHU216HW,2013-12-10 10:35:00,
2013-12-10 04:45:00,14.3,9.5,28.78,WNW,293,3.3,3.3,81,0.00,,,0.00,WUHU216HW,2013-12-10 10:45:00,
2013-12-10 04:50:00,14.7,10.2,28.78,WNW,293,6.0,6.0,82,0.00,,,0.00,WUHU216HW,2013-12-10 10:50:00,
2013-12-10 04:55:00,15.0,10.9,28.78,WNW,293,4.9,7.3,82,0.00,,,0.00,WUHU216HW,2013-12-10 10:55:00,
2013-12-10 05:00:00,15.8,11.5,28.79,WNW,293,7.1,7.3,83,0.00,,,0.00,WUHU216HW,2013-12-10 11:00:00,
2013-12-10 05:05:00,16.1,11.8,28.79,WNW,293,4.6,8.2,83,0.00,,,0.00,WUHU216HW,2013-12-10 11:05:00,
2013-12-10 05:10:00,16.3,12.0,28.79,WNW,293,6.9,8.2,83,0.00,,,0.00,WUHU216HW,2013-12-10 11:10:00,
2013-12-10 05:15:00,16.5,12.1,28.79,WNW,293,8.2,8.2,83,0.00,,,0.00,WUHU216HW,2013-12-10 11:15:00,
2013-12-10 05:20:00,16.5,11.9,28.80,WNW,293,7.3,8.2,82,0.00,,,0.00,WUHU216HW,2013-12-10 11:20:00,
2013-12-10 05:25:00,16.3,11.4,28.80,WNW,293,8.4,8.7,81,0.00,,,0.00,WUHU216HW,2013-12-10 11:25:00,
2013-12-10 05:31:00,16.1,11.3,28.81,WNW,293,9.1,9.1,81,0.00,,,0.00,WUHU216HW,2013-12-10 11:31:00,
2013-12-10 05:36:00,15.8,10.7,28.81,WNW,293,8.5,9.1,80,0.00,,,0.00,WUHU216HW,2013-12-10 11:36:00,
2013-12-10 05:41:00,15.0,10.2,28.82,WNW,293,6.7,9.1,80,0.00,,,0.00,WUHU216HW,2013-12-10 11:41:00,
2013-12-10 05:46:00,14.7,9.6,28.82,WNW,293,8.0,8.0,80,0.00,,,0.00,WUHU216HW,2013-12-10 11:46:00,
2013-12-10 05:51:00,14.5,9.5,28.82,WNW,293,7.0,8.7,80,0.00,,,0.00,WUHU216HW,2013-12-10 11:51:00,
2013-12-10 05:56:00,14.3,9.3,28.82,WNW,293,6.7,8.7,80,0.00,,,0.00,WUHU216HW,2013-12-10 11:56:00,
2013-12-10 06:01:00,14.1,9.1,28.82,WNW,293,8.2,8.5,80,0.00,,,0.00,WUHU216HW,2013-12-10 12:01:00,
2013-12-10 06:06:00,14.0,9.2,28.83,WNW,293,11.6,11.6,81,0.00,,,0.00,WUHU216HW,2013-12-10 12:06:00,
2013-12-10 06:11:00,13.6,8.8,28.83,WNW,293,5.3,11.6,81,0.00,,,0.00,WUHU216HW,2013-12-10 12:11:00,
2013-12-10 06:16:00,13.6,8.8,28.83,WNW,293,8.2,8.2,81,0.00,,,0.00,WUHU216HW,2013-12-10 12:16:00,
2013-12-10 06:21:00,13.2,8.5,28.83,WNW,293,8.5,8.5,81,0.00,,,0.00,WUHU216HW,2013-12-10 12:21:00,
2013-12-10 06:26:00,12.7,7.9,28.84,WNW,293,9.3,10.5,81,0.00,,,0.00,WUHU216HW,2013-12-10 12:26:00,
2013-12-10 06:31:00,12.5,7.5,28.85,WNW,293,9.6,10.5,80,0.00,,,0.00,WUHU216HW,2013-12-10 12:31:00,
2013-12-10 06:37:00,12.0,6.9,28.85,WNW,293,8.2,9.6,80,0.00,,,0.00,WUHU216HW,2013-12-10 12:37:00,
2013-12-10 06:42:00,11.8,6.5,28.86,WNW,293,7.8,8.2,79,0.00,,,0.00,WUHU216HW,2013-12-10 12:42:00,
2013-12-10 06:47:00,11.6,6.3,28.87,WNW,293,7.8,8.2,79,0.00,,,0.00,WUHU216HW,2013-12-10 12:47:00,
2013-12-10 06:52:00,11.4,6.4,28.87,WNW,293,8.0,8.2,80,0.00,,,0.00,WUHU216HW,2013-12-10 12:52:00,
2013-12-10 06:57:00,11.3,5.7,28.88,WNW,293,8.0,8.2,79,0.00,,,0.00,WUHU216HW,2013-12-10 12:57:00,
2013-12-10 07:02:00,11.1,5.7,28.89,WNW,293,8.4,9.3,79,0.00,,,0.00,WUHU216HW,2013-12-10 13:02:00,
2013-12-10 07:07:00,10.9,5.6,28.89,WNW,293,9.3,9.3,79,0.00,,,0.00,WUHU216HW,2013-12-10 13:07:00,
2013-12-10 07:12:00,10.7,5.4,28.89,WNW,293,10.1,10.5,79,0.00,,,0.00,WUHU216HW,2013-12-10 13:12:00,
2013-12-10 07:17:00,10.2,4.9,28.89,WNW,293,7.3,10.5,79,0.00,,,0.00,WUHU216HW,2013-12-10 13:17:00,
2013-12-10 07:22:00,9.6,4.1,28.89,WNW,293,7.6,9.6,78,0.00,,,0.00,WUHU216HW,2013-12-10 13:22:00,
2013-12-10 07:27:00,9.3,3.9,28.89,WNW,293,9.1,12.7,78,0.00,,,0.00,WUHU216HW,2013-12-10 13:27:00,
2013-12-10 07:32:00,8.9,3.2,28.89,WNW,293,7.1,12.7,77,0.00,,,0.00,WUHU216HW,2013-12-10 13:32:00,
2013-12-10 07:38:00,8.4,2.6,28.90,WNW,293,6.4,9.1,77,0.00,,,0.00,WUHU216HW,2013-12-10 13:38:00,
2013-12-10 07:43:00,8.4,2.6,28.90,WNW,293,6.9,8.2,77,0.00,,,0.00,WUHU216HW,2013-12-10 13:43:00,
2013-12-10 07:48:00,7.8,2.1,28.90,WNW,293,8.0,8.5,77,0.00,,,0.00,WUHU216HW,2013-12-10 13:48:00,
2013-12-10 07:53:00,7.5,1.7,28.91,WNW,293,7.2,8.5,77,0.00,,,0.00,WUHU216HW,2013-12-10 13:53:00,
2013-12-10 07:58:00,7.5,1.7,28.92,WNW,293,6.9,8.2,77,0.00,,,0.00,WUHU216HW,2013-12-10 13:58:00,
2013-12-10 08:03:00,7.3,1.6,28.91,WNW,293,8.2,8.2,77,0.00,,,0.00,WUHU216HW,2013-12-10 14:03:00,
2013-12-10 08:08:00,7.1,1.1,28.91,WNW,293,8.2,8.5,76,0.00,,,0.00,WUHU216HW,2013-12-10 14:08:00,
2013-12-10 08:13:00,7.1,1.1,28.92,WNW,293,7.9,8.5,76,0.00,,,0.00,WUHU216HW,2013-12-10 14:13:00,
2013-12-10 08:18:00,7.1,1.1,28.94,WNW,293,7.1,8.2,76,0.00,,,0.00,WUHU216HW,2013-12-10 14:18:00,
2013-12-10 08:23:00,6.9,0.9,28.94,WNW,293,8.0,9.1,76,0.00,,,0.00,WUHU216HW,2013-12-10 14:23:00,
2013-12-10 08:28:00,6.9,0.9,28.94,WNW,293,6.9,9.1,76,0.00,,,0.00,WUHU216HW,2013-12-10 14:28:00,
2013-12-10 08:33:00,6.6,0.6,28.94,WNW,293,5.1,6.9,76,0.00,,,0.00,WUHU216HW,2013-12-10 14:33:00,
2013-12-10 08:39:00,6.6,0.6,28.94,WNW,293,8.0,10.5,76,0.00,,,0.00,WUHU216HW,2013-12-10 14:39:00,
2013-12-10 08:44:00,6.8,0.7,28.96,WNW,293,6.0,10.5,76,0.00,,,0.00,WUHU216HW,2013-12-10 14:44:00,
2013-12-10 08:49:00,6.6,0.6,28.97,WNW,293,7.8,7.8,76,0.00,,,0.00,WUHU216HW,2013-12-10 14:49:00,
2013-12-10 08:54:00,6.9,0.9,28.98,WNW,293,5.8,7.8,76,0.00,,,0.00,WUHU216HW,2013-12-10 14:54:00,
2013-12-10 08:59:00,6.9,1.2,28.98,WNW,293,7.3,8.2,77,0.00,,,0.00,WUHU216HW,2013-12-10 14:59:00,
2013-12-10 09:04:00,6.9,0.6,28.99,WNW,293,8.4,8.7,75,0.00,,,0.00,WUHU216HW,2013-12-10 15:04:00,
2013-12-10 09:09:00,6.9,0.6,29.00,WNW,293,6.0,8.7,75,0.00,,,0.00,WUHU216HW,2013-12-10 15:09:00,
2013-12-10 09:14:00,6.9,0.9,29.00,WNW,293,6.4,8.0,76,0.00,,,0.00,WUHU216HW,2013-12-10 15:14:00,
2013-12-10 09:19:00,7.3,1.0,29.00,WNW,293,8.5,8.5,75,0.00,,,0.00,WUHU216HW,2013-12-10 15:19:00,
2013-12-10 09:24:00,7.3,1.0,28.97,WNW,293,6.4,8.5,75,0.00,,,0.00,WUHU216HW,2013-12-10 15:24:00,
2013-12-10 09:29:00,7.3,1.0,28.97,WNW,293,4.9,8.5,75,0.00,,,0.00,WUHU216HW,2013-12-10 15:29:00,
2013-12-10 09:34:00,7.3,1.0,28.98,WNW,293,8.0,8.0,75,0.00,,,0.00,WUHU216HW,2013-12-10 15:34:00,
2013-12-10 09:40:00,7.3,0.7,28.99,WNW,293,7.1,8.0,74,0.00,,,0.00,WUHU216HW,2013-12-10 15:40:00,
2013-12-10 09:45:00,7.1,0.5,28.99,WNW,293,7.3,8.0,74,0.00,,,0.00,WUHU216HW,2013-12-10 15:45:00,
2013-12-10 09:50:00,7.3,0.7,29.00,WNW,293,8.1,8.2,74,0.00,,,0.00,WUHU216HW,2013-12-10 15:50:00,
2013-12-10 09:55:00,7.3,0.7,29.00,WNW,293,7.1,8.2,74,0.00,,,0.00,WUHU216HW,2013-12-10 15:55:00,
2013-12-10 10:00:00,7.5,0.6,29.01,WNW,293,7.3,7.3,73,0.00,,,0.00,WUHU216HW,2013-12-10 16:00:00,
2013-12-10 10:05:00,7.5,0.6,29.00,WNW,293,3.3,7.3,73,0.00,,,0.00,WUHU216HW,2013-12-10 16:05:00,
2013-12-10 10:10:00,7.7,0.8,29.01,WNW,293,5.1,7.3,73,0.00,,,0.00,WUHU216HW,2013-12-10 16:10:00,
2013-12-10 10:15:00,7.7,0.8,29.02,WNW,293,7.6,8.0,73,0.00,,,0.00,WUHU216HW,2013-12-10 16:15:00,
2013-12-10 10:20:00,7.8,1.0,29.02,WNW,293,5.1,8.0,73,0.00,,,0.00,WUHU216HW,2013-12-10 16:20:00,
2013-12-10 10:25:00,8.2,1.3,29.02,WNW,293,3.8,8.0,73,0.00,,,0.00,WUHU216HW,2013-12-10 16:25:00,
2013-12-10 10:30:00,8.4,1.5,29.02,WNW,293,5.9,8.0,73,0.00,,,0.00,WUHU216HW,2013-12-10 16:30:00,
2013-12-10 10:36:00,8.6,1.7,29.03,WNW,293,2.9,6.4,73,0.00,,,0.00,WUHU216HW,2013-12-10 16:36:00,
2013-12-10 10:41:00,8.9,1.7,29.03,WNW,293,8.2,8.2,72,0.00,,,0.00,WUHU216HW,2013-12-10 16:41:00,
2013-12-10 10:46:00,9.1,1.9,29.03,WNW,293,8.1,8.5,72,0.00,,,0.00,WUHU216HW,2013-12-10 16:46:00,
2013-12-10 10:51:00,9.3,1.7,29.04,WNW,293,6.7,8.5,71,0.00,,,0.00,WUHU216HW,2013-12-10 16:51:00,
2013-12-10 10:56:00,9.3,1.7,29.04,WNW,293,8.2,8.2,71,0.00,,,0.00,WUHU216HW,2013-12-10 16:56:00,
2013-12-10 11:01:00,9.5,1.9,29.04,WNW,293,4.4,8.2,71,0.00,,,0.00,WUHU216HW,2013-12-10 17:01:00,
2013-12-10 11:06:00,9.6,1.8,29.03,WNW,293,6.9,8.5,70,0.00,,,0.00,WUHU216HW,2013-12-10 17:06:00,
2013-12-10 11:11:00,9.6,1.8,29.03,WNW,293,6.9,8.5,70,0.00,,,0.00,WUHU216HW,2013-12-10 17:11:00,
2013-12-10 11:16:00,10.0,2.1,29.03,WNW,293,6.2,6.9,70,0.00,,,0.00,WUHU216HW,2013-12-10 17:16:00,
2013-12-10 11:21:00,10.2,2.3,29.04,WNW,293,5.1,7.6,70,0.00,,,0.00,WUHU216HW,2013-12-10 17:21:00,
2013-12-10 11:26:00,10.5,2.6,29.03,WNW,293,5.1,7.6,70,0.00,,,0.00,WUHU216HW,2013-12-10 17:26:00,
2013-12-10 11:31:00,10.7,2.8,29.04,WNW,293,4.2,5.3,70,0.00,,,0.00,WUHU216HW,2013-12-10 17:31:00,
2013-12-10 11:37:00,10.9,2.6,29.04,WNW,293,5.8,7.8,69,0.00,,,0.00,WUHU216HW,2013-12-10 17:37:00,
2013-12-10 11:42:00,10.9,2.6,29.04,WNW,293,8.0,8.0,69,0.00,,,0.00,WUHU216HW,2013-12-10 17:42:00,
2013-12-10 11:47:00,10.9,2.6,29.04,WNW,293,4.9,8.0,69,0.00,,,0.00,WUHU216HW,2013-12-10 17:47:00,
2013-12-10 11:52:00,11.1,2.8,29.04,WNW,293,3.3,4.9,69,0.00,,,0.00,WUHU216HW,2013-12-10 17:52:00,
2013-12-10 11:57:00,11.8,3.2,29.05,WNW,293,6.0,6.0,69,0.00,,,0.00,WUHU216HW,2013-12-10 17:57:00,
2013-12-10 12:02:00,11.8,3.5,29.04,WNW,293,6.9,7.3,69,0.00,,,0.00,WUHU216HW,2013-12-10 18:02:00,
2013-12-10 12:07:00,11.8,3.5,29.04,WNW,293,6.9,7.6,69,0.00,,,0.00,WUHU216HW,2013-12-10 18:07:00,
2013-12-10 12:12:00,11.8,3.5,29.05,WNW,293,3.8,7.6,69,0.00,,,0.00,WUHU216HW,2013-12-10 18:12:00,
2013-12-10 12:17:00,12.0,3.7,29.05,WNW,293,7.7,8.0,69,0.00,,,0.00,WUHU216HW,2013-12-10 18:17:00,
2013-12-10 12:22:00,12.0,3.7,29.04,WNW,293,6.2,8.0,69,0.00,,,0.00,WUHU216HW,2013-12-10 18:22:00,
2013-12-10 12:27:00,12.3,3.9,29.04,WNW,293,4.0,7.3,69,0.00,,,0.00,WUHU216HW,2013-12-10 18:27:00,
2013-12-10 12:33:00,12.5,4.2,29.04,WNW,293,7.1,7.3,69,0.00,,,0.00,WUHU216HW,2013-12-10 18:33:00,
2013-12-10 12:38:00,12.5,4.2,29.04,WNW,293,6.7,7.3,69,0.00,,,0.00,WUHU216HW,2013-12-10 18:38:00,
2013-12-10 12:43:00,12.7,4.4,29.05,WNW,293,5.6,7.1,68,0.00,,,0.00,WUHU216HW,2013-12-10 18:43:00,
2013-12-10 12:48:00,12.7,4.1,29.05,WNW,293,4.1,7.1,68,0.00,,,0.00,WUHU216HW,2013-12-10 18:48:00,
2013-12-10 12:53:00,12.9,4.3,29.04,WNW,293,4.4,7.3,68,0.00,,,0.00,WUHU216HW,2013-12-10 18:53:00,
2013-12-10 12:58:00,12.9,4.3,29.04,WNW,293,6.4,7.3,68,0.00,,,0.00,WUHU216HW,2013-12-10 18:58:00,
2013-12-10 13:03:00,13.1,4.4,29.03,WNW,293,6.7,6.7,68,0.00,,,0.00,WUHU216HW,2013-12-10 19:03:00,
2013-12-10 13:08:00,13.1,4.1,29.03,WNW,293,6.4,7.8,67,0.00,,,0.00,WUHU216HW,2013-12-10 19:08:00,
2013-12-10 13:13:00,13.2,4.6,29.02,WNW,293,4.6,7.8,68,0.00,,,0.00,WUHU216HW,2013-12-10 19:13:00,
2013-12-10 13:18:00,13.2,4.6,29.03,WNW,293,3.5,6.4,68,0.00,,,0.00,WUHU216HW,2013-12-10 19:18:00,
2013-12-10 13:23:00,13.6,5.0,29.03,WNW,293,8.2,8.2,68,0.00,,,0.00,WUHU216HW,2013-12-10 19:23:00,
2013-12-10 13:28:00,13.6,4.6,29.03,WNW,293,6.9,8.2,67,0.00,,,0.00,WUHU216HW,2013-12-10 19:28:00,
2013-12-10 13:34:00,13.6,4.6,29.03,WNW,293,4.9,8.2,67,0.00,,,0.00,WUHU216HW,2013-12-10 19:34:00,
2013-12-10 13:39:00,13.6,4.6,29.03,WNW,293,5.1,6.9,67,0.00,,,0.00,WUHU216HW,2013-12-10 19:39:00,
2013-12-10 13:44:00,13.6,4.6,29.03,WNW,293,7.8,7.8,67,0.00,,,0.00,WUHU216HW,2013-12-10 19:44:00,
2013-12-10 13:49:00,13.6,4.6,29.03,WNW,293,1.6,7.8,67,0.00,,,0.00,WUHU216HW,2013-12-10 19:49:00,
2013-12-10 13:54:00,13.6,4.6,29.03,WNW,293,0.0,7.8,67,0.00,,,0.00,WUHU216HW,2013-12-10 19:54:00,
2013-12-10 13:59:00,13.8,4.8,29.03,WNW,293,6.0,6.0,67,0.00,,,0.00,WUHU216HW,2013-12-10 19:59:00,
2013-12-10 14:04:00,14.1,5.2,29.03,WNW,293,7.4,8.0,67,0.00,,,0.00,WUHU216HW,2013-12-10 20:04:00,
2013-12-10 14:09:00,14.1,5.2,29.03,WNW,293,2.9,8.0,67,0.00,,,0.00,WUHU216HW,2013-12-10 20:09:00,
2013-12-10 14:14:00,14.1,4.8,29.02,WNW,293,4.2,6.9,66,0.00,,,0.00,WUHU216HW,2013-12-10 20:14:00,
2013-12-10 14:19:00,14.3,5.3,29.02,WNW,293,1.9,5.8,67,0.00,,,0.00,WUHU216HW,2013-12-10 20:19:00,
2013-12-10 14:24:00,14.5,5.5,29.03,WNW,293,3.5,4.2,67,0.00,,,0.00,WUHU216HW,2013-12-10 20:24:00,
2013-12-10 14:29:00,14.7,5.5,29.03,WNW,293,3.3,3.5,67,0.00,,,0.00,WUHU216HW,2013-12-10 20:29:00,
2013-12-10 14:35:00,14.7,5.3,29.02,WNW,293,2.1,3.3,66,0.00,,,0.00,WUHU216HW,2013-12-10 20:35:00,
2013-12-10 14:40:00,14.7,5.3,29.03,WNW,293,6.4,6.4,66,0.00,,,0.00,WUHU216HW,2013-12-10 20:40:00,
2013-12-10 14:45:00,14.7,5.3,29.03,WNW,293,2.5,6.4,66,0.00,,,0.00,WUHU216HW,2013-12-10 20:45:00,
2013-12-10 14:50:00,14.7,5.3,29.02,WNW,293,4.4,6.2,66,0.00,,,0.00,WUHU216HW,2013-12-10 20:50:00,
2013-12-10 14:55:00,14.7,5.7,29.02,WNW,293,4.0,4.4,67,0.00,,,0.00,WUHU216HW,2013-12-10 20:55:00,
2013-12-10 15:00:00,14.7,5.7,29.03,WNW,293,2.0,4.0,67,0.00,,,0.00,WUHU216HW,2013-12-10 21:00:00,
2013-12-10 15:05:00,14.7,5.3,29.03,WNW,293,2.9,4.0,66,0.00,,,0.00,WUHU216HW,2013-12-10 21:05:00,
2013-12-10 15:10:00,14.7,5.7,29.03,WNW,293,0.0,2.9,67,0.00,,,0.00,WUHU216HW,2013-12-10 21:10:00,
2013-12-10 15:15:00,14.7,5.7,29.02,WNW,293,2.4,2.4,67,0.00,,,0.00,WUHU216HW,2013-12-10 21:15:00,
2013-12-10 15:20:00,14.7,5.7,29.02,WNW,293,0.0,2.4,67,0.00,,,0.00,WUHU216HW,2013-12-10 21:20:00,
2013-12-10 15:25:00,14.7,5.7,29.03,WNW,293,0.0,2.6,67,0.00,,,0.00,WUHU216HW,2013-12-10 21:25:00,
2013-12-10 15:30:00,14.5,5.8,29.03,WNW,293,2.2,2.6,68,0.00,,,0.00,WUHU216HW,2013-12-10 21:30:00,
2013-12-10 15:35:00,14.5,5.8,29.03,WNW,293,0.0,2.2,68,0.00,,,0.00,WUHU216HW,2013-12-10 21:35:00,
2013-12-10 15:41:00,14.7,6.0,29.03,WNW,293,1.5,1.5,68,0.00,,,0.00,WUHU216HW,2013-12-10 21:41:00,
2013-12-10 15:46:00,14.7,6.0,29.03,WNW,293,0.0,1.5,68,0.00,,,0.00,WUHU216HW,2013-12-10 21:46:00,
2013-12-10 15:51:00,14.7,6.0,29.03,WNW,293,0.0,0.0,68,0.00,,,0.00,WUHU216HW,2013-12-10 21:51:00,
2013-12-10 15:56:00,14.7,6.0,29.04,WNW,293,0.0,0.0,68,0.00,,,0.00,WUHU216HW,2013-12-10 21:56:00,
2013-12-10 16:01:00,14.9,6.2,29.04,WNW,293,0.0,2.2,68,0.00,,,0.00,WUHU216HW,2013-12-10 22:01:00,
2013-12-10 16:06:00,14.7,6.0,29.04,WNW,293,0.0,2.2,68,0.00,,,0.00,WUHU216HW,2013-12-10 22:06:00,
2013-12-10 16:11:00,14.7,6.0,29.04,WNW,293,0.0,2.0,68,0.00,,,0.00,WUHU216HW,2013-12-10 22:11:00,
2013-12-10 16:16:00,14.7,6.0,29.04,WNW,293,0.0,0.0,68,0.00,,,0.00,WUHU216HW,2013-12-10 22:16:00,
2013-12-10 16:21:00,14.7,6.3,29.04,WNW,293,0.0,0.0,69,0.00,,,0.00,WUHU216HW,2013-12-10 22:21:00,
2013-12-10 16:26:00,14.7,6.3,29.04,WNW,293,0.0,0.0,69,0.00,,,0.00,WUHU216HW,2013-12-10 22:26:00,
2013-12-10 16:31:00,14.5,6.2,29.04,WNW,293,0.0,0.0,69,0.00,,,0.00,WUHU216HW,2013-12-10 22:31:00,
2013-12-10 16:36:00,14.5,6.2,29.05,WNW,293,0.0,0.0,69,0.00,,,0.00,WUHU216HW,2013-12-10 22:36:00,
2013-12-10 16:41:00,14.5,6.2,29.05,WNW,293,0.0,0.0,69,0.00,,,0.00,WUHU216HW,2013-12-10 22:41:00,
2013-12-10 16:46:00,14.5,6.2,29.05,WNW,293,0.0,0.0,69,0.00,,,0.00,WUHU216HW,2013-12-10 22:46:00,
2013-12-10 16:52:00,14.5,6.2,29.06,WNW,293,1.5,1.5,69,0.00,,,0.00,WUHU216HW,2013-12-10 22:52:00,
2013-12-10 16:57:00,14.5,6.5,29.06,WNW,293,0.0,1.5,70,0.00,,,0.00,WUHU216HW,2013-12-10 22:57:00,
2013-12-10 17:02:00,14.5,6.5,29.06,WNW,293,0.0,1.5,70,0.00,,,0.00,WUHU216HW,2013-12-10 23:02:00,
2013-12-10 17:07:00,14.5,6.5,29.06,WNW,293,0.0,0.0,70,0.00,,,0.00,WUHU216HW,2013-12-10 23:07:00,
2013-12-10 17:12:00,14.5,6.5,29.06,WNW,293,0.0,0.0,70,0.00,,,0.00,WUHU216HW,2013-12-10 23:12:00,
2013-12-10 17:17:00,14.7,6.7,29.06,WNW,293,0.0,0.0,70,0.00,,,0.00,WUHU216HW,2013-12-10 23:17:00,
2013-12-10 17:22:00,14.7,6.7,29.06,WNW,293,0.0,0.0,70,0.00,,,0.00,WUHU216HW,2013-12-10 23:22:00,
2013-12-10 17:27:00,14.7,6.7,29.06,WNW,293,0.0,0.0,70,0.00,,,0.00,WUHU216HW,2013-12-10 23:27:00,
2013-12-10 17:32:00,14.7,6.7,29.06,WNW,293,0.0,0.0,70,0.00,,,0.00,WUHU216HW,2013-12-10 23:32:00,
2013-12-10 17:37:00,14.7,7.0,29.06,WNW,293,0.0,0.0,71,0.00,,,0.00,WUHU216HW,2013-12-10 23:37:00,
2013-12-10 17:42:00,14.7,7.0,29.06,WNW,293,0.0,0.0,71,0.00,,,0.00,WUHU216HW,2013-12-10 23:42:00,
2013-12-10 17:47:00,14.7,7.0,29.06,WNW,293,0.0,0.0,71,0.00,,,0.00,WUHU216HW,2013-12-10 23:47:00,
2013-12-10 17:53:00,14.7,6.7,29.06,WNW,293,0.0,0.0,70,0.00,,,0.00,WUHU216HW,2013-12-10 23:53:00,
2013-12-10 17:58:00,14.7,6.7,29.07,WNW,293,0.0,0.0,70,0.00,,,0.00,WUHU216HW,2013-12-10 23:58:00,
2013-12-10 18:03:00,14.7,7.0,29.07,WNW,293,0.0,0.0,71,0.00,,,0.00,WUHU216HW,2013-12-11 00:03:00,
2013-12-10 18:08:00,14.7,7.0,29.07,WNW,293,0.0,0.0,71,0.00,,,0.00,WUHU216HW,2013-12-11 00:08:00,
2013-12-10 18:13:00,14.7,7.0,29.07,WNW,293,0.0,0.0,71,0.00,,,0.00,WUHU216HW,2013-12-11 00:13:00,
2013-12-10 18:18:00,14.9,7.1,29.08,WNW,293,0.0,0.0,71,0.00,,,0.00,WUHU216HW,2013-12-11 00:18:00,
2013-12-10 18:23:00,14.9,7.1,29.08,WNW,293,0.0,0.0,71,0.00,,,0.00,WUHU216HW,2013-12-11 00:23:00,
2013-12-10 18:28:00,14.9,7.1,29.08,WNW,293,0.0,0.0,71,0.00,,,0.00,WUHU216HW,2013-12-11 00:28:00,
2013-12-10 18:33:00,14.9,7.1,29.08,WNW,293,0.0,0.0,71,0.00,,,0.00,WUHU216HW,2013-12-11 00:33:00,
2013-12-10 18:38:00,15.0,7.3,29.08,WNW,293,0.0,0.0,71,0.00,,,0.00,WUHU216HW,2013-12-11 00:38:00,
2013-12-10 18:43:00,15.0,7.6,29.08,WNW,293,0.0,0.0,72,0.00,,,0.00,WUHU216HW,2013-12-11 00:43:00,
2013-12-10 18:48:00,15.0,7.6,29.08,WNW,293,0.0,0.0,72,0.00,,,0.00,WUHU216HW,2013-12-11 00:48:00,
2013-12-10 18:53:00,15.0,7.6,29.08,WNW,293,0.0,0.0,72,0.00,,,0.00,WUHU216HW,2013-12-11 00:53:00,
2013-12-10 18:59:00,15.0,7.6,29.09,WNW,293,0.0,0.0,72,0.00,,,0.00,WUHU216HW,2013-12-11 00:59:00,
2013-12-10 19:04:00,15.2,7.8,29.09,WNW,293,0.0,0.0,72,0.00,,,0.00,WUHU216HW,2013-12-11 01:04:00,
2013-12-10 19:09:00,15.2,8.1,29.09,WNW,293,0.0,0.0,73,0.00,,,0.00,WUHU216HW,2013-12-11 01:09:00,
2013-12-10 19:14:00,15.2,8.1,29.09,WNW,293,0.0,0.0,73,0.00,,,0.00,WUHU216HW,2013-12-11 01:14:00,
2013-12-10 19:19:00,15.2,8.4,29.09,WNW,293,0.0,0.0,74,0.00,,,0.00,WUHU216HW,2013-12-11 01:19:00,
2013-12-10 19:24:00,15.2,8.4,29.09,WNW,293,0.0,0.0,74,0.00,,,0.00,WUHU216HW,2013-12-11 01:24:00,
2013-12-10 19:29:00,15.4,8.5,29.09,WNW,293,0.0,0.0,74,0.00,,,0.00,WUHU216HW,2013-12-11 01:29:00,
2013-12-10 19:34:00,15.4,8.8,29.08,WNW,293,0.0,0.0,75,0.00,,,0.00,WUHU216HW,2013-12-11 01:34:00,
2013-12-10 19:39:00,15.4,8.8,29.08,WNW,293,0.0,0.0,75,0.00,,,0.00,WUHU216HW,2013-12-11 01:39:00,
2013-12-10 19:44:00,15.4,8.8,29.08,WNW,293,0.0,0.0,75,0.00,,,0.00,WUHU216HW,2013-12-11 01:44:00,
2013-12-10 19:49:00,15.6,9.0,29.08,WNW,293,0.0,0.0,75,0.00,,,0.00,WUHU216HW,2013-12-11 01:49:00,
2013-12-10 19:54:00,15.6,9.3,29.08,WNW,293,0.0,0.0,76,0.00,,,0.00,WUHU216HW,2013-12-11 01:54:00,
2013-12-10 19:59:00,15.6,9.3,29.09,WNW,293,0.0,0.0,76,0.00,,,0.00,WUHU216HW,2013-12-11 01:59:00,
2013-12-10 20:05:00,15.6,9.3,29.09,WNW,293,0.0,0.0,76,0.00,,,0.00,WUHU216HW,2013-12-11 02:05:00,
2013-12-10 20:10:00,15.6,9.3,29.09,WNW,293,0.0,0.0,76,0.00,,,0.00,WUHU216HW,2013-12-11 02:10:00,
2013-12-10 20:15:00,15.6,9.6,29.09,WNW,293,0.0,0.0,77,0.00,,,0.00,WUHU216HW,2013-12-11 02:15:00,
2013-12-10 20:20:00,15.8,9.8,29.09,WNW,293,0.0,0.0,77,0.00,,,0.00,WUHU216HW,2013-12-11 02:20:00,
2013-12-10 20:25:00,15.9,10.0,29.09,WNW,293,0.0,0.0,77,0.00,,,0.00,WUHU216HW,2013-12-11 02:25:00,
2013-12-10 20:30:00,15.9,10.0,29.10,WNW,293,0.0,0.0,77,0.00,,,0.00,WUHU216HW,2013-12-11 02:30:00,
2013-12-10 20:35:00,15.9,10.0,29.10,WNW,293,0.0,0.0,77,0.00,,,0.00,WUHU216HW,2013-12-11 02:35:00,
2013-12-10 20:40:00,15.9,10.3,29.10,WNW,293,0.0,0.0,78,0.00,,,0.00,WUHU216HW,2013-12-11 02:40:00,
2013-12-10 20:45:00,16.1,10.4,29.10,WNW,293,0.0,0.0,78,0.00,,,0.00,WUHU216HW,2013-12-11 02:45:00,
2013-12-10 20:50:00,16.1,10.4,29.10,WNW,293,0.0,0.0,78,0.00,,,0.00,WUHU216HW,2013-12-11 02:50:00,
2013-12-10 20:55:00,16.3,10.6,29.10,WNW,293,0.0,0.0,78,0.00,,,0.00,WUHU216HW,2013-12-11 02:55:00,
2013-12-10 21:00:00,16.3,10.6,29.10,WNW,293,0.0,0.0,78,0.00,,,0.00,WUHU216HW,2013-12-11 03:00:00,
2013-12-10 21:05:00,16.3,10.6,29.10,WNW,293,0.0,0.0,78,0.00,,,0.00,WUHU216HW,2013-12-11 03:05:00,
2013-12-10 21:11:00,16.5,10.7,29.10,WNW,293,0.0,0.0,78,0.00,,,0.00,WUHU216HW,2013-12-11 03:11:00,
2013-12-10 21:16:00,16.5,10.7,29.10,WNW,293,0.0,0.0,78,0.00,,,0.00,WUHU216HW,2013-12-11 03:16:00,
2013-12-10 21:21:00,16.7,10.9,29.10,WNW,293,0.0,0.0,78,0.00,,,0.00,WUHU216HW,2013-12-11 03:21:00,
2013-12-10 21:26:00,16.7,10.9,29.10,WNW,293,0.0,0.0,78,0.00,,,0.00,WUHU216HW,2013-12-11 03:26:00,
2013-12-10 21:31:00,16.8,11.1,29.10,WNW,293,0.0,0.0,78,0.00,,,0.00,WUHU216HW,2013-12-11 03:31:00,
2013-12-10 21:36:00,16.8,11.1,29.10,WNW,293,0.0,0.0,78,0.00,,,0.00,WUHU216HW,2013-12-11 03:36:00,
2013-12-10 21:41:00,16.8,11.1,29.10,WNW,293,0.0,0.0,78,0.00,,,0.00,WUHU216HW,2013-12-11 03:41:00,
2013-12-10 21:46:00,16.8,11.1,29.10,WNW,293,0.0,0.0,78,0.00,,,0.00,WUHU216HW,2013-12-11 03:46:00,
2013-12-10 21:51:00,17.2,11.4,29.10,WNW,293,0.0,0.0,78,0.00,,,0.00,WUHU216HW,2013-12-11 03:51:00,
2013-12-10 21:56:00,17.2,11.7,29.10,WNW,293,0.0,0.0,79,0.00,,,0.00,WUHU216HW,2013-12-11 03:56:00,
2013-12-10 22:01:00,17.2,11.7,29.11,WNW,293,0.0,0.0,79,0.00,,,0.00,WUHU216HW,2013-12-11 04:01:00,
2013-12-10 22:06:00,17.4,11.9,29.10,WNW,293,0.0,0.0,79,0.00,,,0.00,WUHU216HW,2013-12-11 04:06:00,
2013-12-10 22:12:00,17.4,11.9,29.10,WNW,293,0.0,0.0,79,0.00,,,0.00,WUHU216HW,2013-12-11 04:12:00,
2013-12-10 22:17:00,17.4,11.9,29.11,WNW,293,0.0,0.0,79,0.00,,,0.00,WUHU216HW,2013-12-11 04:17:00,
2013-12-10 22:22:00,17.4,11.9,29.11,WNW,293,0.0,0.0,79,0.00,,,0.00,WUHU216HW,2013-12-11 04:22:00,
2013-12-10 22:27:00,17.4,11.9,29.11,WNW,293,0.0,0.0,79,0.00,,,0.00,WUHU216HW,2013-12-11 04:27:00,
2013-12-10 22:32:00,17.4,11.9,29.12,WNW,293,0.0,0.0,79,0.00,,,0.00,WUHU216HW,2013-12-11 04:32:00,
2013-12-10 22:37:00,17.4,11.9,29.12,WNW,293,0.0,0.0,79,0.00,,,0.00,WUHU216HW,2013-12-11 04:37:00,
2013-12-10 22:42:00,17.7,12.2,29.12,WNW,293,0.0,0.0,79,0.00,,,0.00,WUHU216HW,2013-12-11 04:42:00,
2013-12-10 22:47:00,17.7,12.2,29.12,WNW,293,0.0,0.0,79,0.00,,,0.00,WUHU216HW,2013-12-11 04:47:00,
2013-12-10 22:52:00,17.7,12.2,29.12,WNW,293,0.0,0.0,79,0.00,,,0.00,WUHU216HW,2013-12-11 04:52:00,
2013-12-10 22:57:00,17.7,12.2,29.12,WNW,293,0.0,0.0,79,0.00,,,0.00,WUHU216HW,2013-12-11 04:57:00,
2013-12-10 23:01:00,17.7,12.2,29.12,WNW,293,0.0,0.0,79,0.00,,,0.00,WUHU216HW,2013-12-11 05:01:00,
2013-12-10 23:03:00,17.7,12.2,29.12,WNW,293,0.0,0.0,79,0.00,,,0.00,WUHU216HW,2013-12-11 05:03:00,
2013-12-10 23:08:00,17.7,12.2,29.13,WNW,293,0.0,0.0,79,0.00,,,0.00,WUHU216HW,2013-12-11 05:08:00,
2013-12-10 23:13:00,17.7,12.2,29.13,WNW,293,0.0,0.0,79,0.00,,,0.00,WUHU216HW,2013-12-11 05:13:00,
2013-12-10 23:18:00,17.7,12.2,29.13,WNW,293,0.0,0.0,79,0.00,,,0.00,WUHU216HW,2013-12-11 05:18:00,
2013-12-10 23:23:00,17.6,12.3,29.14,WNW,293,0.0,0.0,80,0.00,,,0.00,WUHU216HW,2013-12-11 05:23:00,
2013-12-10 23:28:00,17.4,12.2,29.13,WNW,293,0.0,0.0,80,0.00,,,0.00,WUHU216HW,2013-12-11 05:28:00,
2013-12-10 23:33:00,17.4,12.2,29.14,WNW,293,0.0,0.0,80,0.00,,,0.00,WUHU216HW,2013-12-11 05:33:00,
2013-12-10 23:38:00,17.4,12.2,29.14,WNW,293,0.0,0.0,80,0.00,,,0.00,WUHU216HW,2013-12-11 05:38:00,
2013-12-10 23:43:00,17.4,12.2,29.14,WNW,293,0.0,0.0,80,0.00,,,0.00,WUHU216HW,2013-12-11 05:43:00,
2013-12-10 23:48:00,17.4,12.2,29.14,WNW,293,0.0,0.0,80,0.00,,,0.00,WUHU216HW,2013-12-11 05:48:00,
2013-12-10 23:53:00,17.4,12.2,29.14,WNW,293,0.0,0.0,80,0.00,,,0.00,WUHU216HW,2013-12-11 05:53:00,
2013-12-10 23:59:00,17.4,12.2,29.15,WNW,293,0.0,0.0,80,0.00,,,0.00,WUHU216HW,2013-12-11 05:59:00,